Regional Weather Roundup
Issued by NWS Kansas City/Pleasant Hill, MO

Home | Current Version | Previous Version | Text Only | Print | Product List | Glossary On
Versions: 1 2 3 4 5 6 7 8 9 10 11 12 13 14 15 16 17 18 19 20 21 22 23 24 25 26 27
000
ASUS43 KEAX 181110
RWREAX

WEATHER ROUNDUP FOR EASTERN KANSAS AND NORTHWEST MISSOURI
NATIONAL WEATHER SERVICE KANSAS CITY/PLEASANT HILL MO
500 AM CST SAT NOV 18 2017

KSZ040-057-103>105-MOZ028-029-037-043-181200-
...KANSAS CITY METROPOLITAN AREA...

CITY           SKY/WX    TMP DP  RH WIND       PRES   REMARKS
K.C. INTL      CLOUDY    50  49  96 N23G30    29.49R FOG
K.C. DOWNTOWN  CLOUDY    54  50  86 N14G22    29.48R
LEES SUMMIT    LGT RAIN  55  55 100 N21G31    29.44R FOG
OLATHE - IXD   LGT RAIN  52  52 100 NW24G37   29.48R FOG
OLATHE - OJC   LGT RAIN  53  53 100 N23G35    29.45R FOG
LAWRENCE       LGT RAIN  52  50  93 NW18G33   29.50R FOG

$$

MOZ001>008-011>017-020>025-030>033-038>040-044>046-053-054-181200-
...NORTHERN AND CENTRAL MISSOURI...

CITY           SKY/WX    TMP DP  RH WIND       PRES   REMARKS
ST. JOSEPH     LGT RAIN  47  44  90 N24G35    29.58R
MOSBY          LGT RAIN  52  50  93 N21G29    29.48R
WARRENSBURG    MOCLDY    57  55  94 N7        29.36R
WHITEMAN AFB   CLEAR     58  57  98 N10       29.31S
CLINTON        CLOUDY    66  59  77 MISG      29.34F
SEDALIA        CLOUDY    62  62 100 CALM      29.35F
WARSAW         NOT AVBL
CHILLICOTHE      N/A     49  48  97 N14G24    29.47R
KIRKSVILLE     CLOUDY    47  47 100 N20G30    29.43S

$$

MOZ041-047>049-056>058-063>065-088>090-097-181200-
...EASTERN AND SOUTHERN MISSOURI...

CITY           SKY/WX    TMP DP  RH WIND       PRES   REMARKS
ST. LOUIS INTL CLOUDY    64  61  90 S9        29.41F
SPIRIT OF STL  CLOUDY    65  61  87 S5        29.39F
COLUMBIA       CLOUDY    64  61  90 S7        29.36F
JEFFERSON CITY CLOUDY    67  60  78 E6        29.36F
ROLLA          CLOUDY    67  62  84 S16       29.40F
OSAGE BEACH    PTCLDY    68  61  78 S6        29.38S
SPRINGFIELD    CLOUDY    71  61  70 SW21G33   29.42R
BRANSON        CLOUDY    70  59  68 SW14G22   29.49S
JOPLIN         CLOUDY    71  61  70 SW24G33   29.42R
WEST PLAINS    CLOUDY    67  62  84 S13G21    29.50S

$$

IAZ060-094-KSZ022-034>040-054-083-096-NEZ052-066-093-181200-
...KANSAS...SOUTHEAST NEBRASKA AND IOWA...

CITY           SKY/WX    TMP DP  RH WIND       PRES   REMARKS
TOPEKA         CLOUDY    50  47  89 N25G38    29.55R
MANHATTAN      CLOUDY    47  42  83 N13G21    29.67R
EMPORIA        CLOUDY    49  46  90 NW23G33   29.55R
CHANUTE        CLOUDY    56  55  97 NW22G28   29.48R FOG
WICHITA        CLOUDY    49  41  74 N24G38    29.66R
OMAHA          LGT RAIN  39  35  86 NW20G32   29.74R WCI  29
LINCOLN        LGT RAIN  41  38  89 N21G28    29.77R WCI  32
FALLS CITY     RAIN      44  41  89 N17G25    29.65R
LAMONI         LGT RAIN  43  42  97 N21G28    29.57R WCI  34
DES MOINES     LGT RAIN  40  38  93 N14G22    29.64R WCI  32

$$





USA.gov is the U.S. government's official web portal to all federal, state and local government web resources and services.